Location: Unspecified
(43.4680°N, 87.1740°E)
Time: 20:05:38
(UTC+00:00)

Cosmos 1302 Rocket - Pass Details

Date: 17 April 2021
Orbit: 756 x 776 km, 74.0° (Epoch: 11 May)

Event Time Altitude Azimuth Distance (km) Brightness Sun altitude
Rises 14:04:14 0° 336° (NNW) 3,266 8.2 -12.2°
Reaches altitude 10° 14:06:39 10° 333° (NNW) 2,334 7.4 -12.6°
Maximum altitude 14:11:53 63° 254° (WSW) 865 4.5 -13.4°
Drops below altitude 10° 14:17:04 10° 174° (S) 2,311 6.1 -14.2°
Enters shadow 14:17:59 - 173° (S) 2,662 6.4 -14.4°
